Find Starlink 31535

NORAD ID: 59504 Int'l Des: 2024-071 Owner: SPXS Country: US Constellation: starlink operational
LEOCIRCULAR

Live Position

Loading 3D Globe...

About Starlink 31535

Description loading...

Upcoming Passes

Passes for default location (London). Set your location on the main map for personalized predictions.

Altitude History

Loading altitude history...

Two-Line Element Set

1 59504U 24071W 26140.14275501 .00001981 00000-0 81489-4 0 9998
2 59504 43.0023 303.9805 0001436 265.4239 94.6448 15.27583167119045
Epoch: May 20, 2026 • Age: 5 hours

Current Status

Altitude 484.6 km
Velocity 7.62 km/s
Sub-Earth Point -10.66°S, 67.67°W
Launch Date Apr 13, 2024
Age 2 years
Type internet

Technical Details

Classification Payload
Mass 730.00 kg
Dry Mass 700.00 kg
Total Mass 730.00 kg
Length 0.30 m
Diameter 4.10 m
Span 29.00 m
Shape Box + pan
Manufacturer SPXS
Bus Type Starlink V2M
Phase Status In Orbit
Owner/State SPXS/US

Most Searched